Year,Month,Day,Hour,Minute,Value (Times are PST for temperature in C)
2019,03,27,00,00,4.70
2019,03,27,00,01,4.70
2019,03,27,00,02,4.70
2019,03,27,00,03,4.70
2019,03,27,00,04,4.70
2019,03,27,00,05,4.70
2019,03,27,00,06,4.70
2019,03,27,00,07,4.70
2019,03,27,00,08,4.70
2019,03,27,00,09,4.70
2019,03,27,00,10,4.70
2019,03,27,00,11,4.70
2019,03,27,00,12,4.70
2019,03,27,00,13,4.70
2019,03,27,00,14,4.60
2019,03,27,00,15,4.60
2019,03,27,00,16,4.60
2019,03,27,00,17,4.60
2019,03,27,00,18,4.60
2019,03,27,00,19,4.60
2019,03,27,00,20,4.50
2019,03,27,00,21,4.50
2019,03,27,00,22,4.50
2019,03,27,00,23,4.50
2019,03,27,00,24,4.60
2019,03,27,00,25,4.60
2019,03,27,00,26,4.60
2019,03,27,00,27,4.70
2019,03,27,00,28,4.80
2019,03,27,00,29,4.90
2019,03,27,00,30,5.00
2019,03,27,00,31,5.10
2019,03,27,00,32,5.20
2019,03,27,00,33,5.30
2019,03,27,00,34,5.30
2019,03,27,00,35,5.30
2019,03,27,00,36,5.30
2019,03,27,00,37,5.20
2019,03,27,00,38,5.10
2019,03,27,00,39,5.00
2019,03,27,00,40,5.00
2019,03,27,00,41,5.00
2019,03,27,00,42,4.90
2019,03,27,00,43,4.90
2019,03,27,00,44,4.80
2019,03,27,00,45,4.80
2019,03,27,00,46,4.80
2019,03,27,00,47,4.80
2019,03,27,00,48,4.80
2019,03,27,00,49,4.80
2019,03,27,00,50,4.70
2019,03,27,00,51,4.70
2019,03,27,00,52,4.70
2019,03,27,00,53,4.70
2019,03,27,00,54,4.80
2019,03,27,00,55,4.80
2019,03,27,00,56,4.80
2019,03,27,00,57,4.90
2019,03,27,00,58,4.90
2019,03,27,00,59,4.90
2019,03,27,01,00,5.00
2019,03,27,01,01,5.10
2019,03,27,01,02,5.10
2019,03,27,01,03,5.10
2019,03,27,01,04,5.10
2019,03,27,01,05,5.20
2019,03,27,01,06,5.20
2019,03,27,01,07,5.20
2019,03,27,01,08,5.20
2019,03,27,01,09,5.20
2019,03,27,01,10,5.20
2019,03,27,01,11,5.20
2019,03,27,01,12,5.20
2019,03,27,01,13,5.20
2019,03,27,01,14,5.20
2019,03,27,01,15,5.20
2019,03,27,01,16,5.20
2019,03,27,01,17,5.30
2019,03,27,01,18,5.30
2019,03,27,01,19,5.30
2019,03,27,01,20,5.40
2019,03,27,01,21,5.40
2019,03,27,01,22,5.40
2019,03,27,01,23,5.40
2019,03,27,01,24,5.40
2019,03,27,01,25,5.40
2019,03,27,01,26,5.50
2019,03,27,01,27,5.50
2019,03,27,01,28,5.60
2019,03,27,01,29,5.60
2019,03,27,01,30,5.60
2019,03,27,01,31,5.60
2019,03,27,01,32,5.60
2019,03,27,01,33,5.60
2019,03,27,01,34,5.60
2019,03,27,01,35,5.60
2019,03,27,01,36,5.60
2019,03,27,01,37,5.60
2019,03,27,01,38,5.60
2019,03,27,01,39,5.60
2019,03,27,01,40,5.60
2019,03,27,01,41,5.60
2019,03,27,01,42,5.60
2019,03,27,01,43,5.60
2019,03,27,01,44,5.60
2019,03,27,01,45,5.60
2019,03,27,01,46,5.60
2019,03,27,01,47,5.60
2019,03,27,01,48,5.60
2019,03,27,01,49,5.60
2019,03,27,01,50,5.50
2019,03,27,01,51,5.50
2019,03,27,01,52,5.50
2019,03,27,01,53,5.50
2019,03,27,01,54,5.50
2019,03,27,01,55,5.50
2019,03,27,01,56,5.50
2019,03,27,01,57,5.60
2019,03,27,01,58,5.60
2019,03,27,01,59,5.60
2019,03,27,02,00,5.60
2019,03,27,02,01,5.60
2019,03,27,02,02,5.60
2019,03,27,02,03,5.60
2019,03,27,02,04,5.60
2019,03,27,02,05,5.60
2019,03,27,02,06,5.60
2019,03,27,02,07,5.60
2019,03,27,02,08,5.70
2019,03,27,02,09,5.70
2019,03,27,02,10,5.70
2019,03,27,02,11,5.70
2019,03,27,02,12,5.70
2019,03,27,02,13,5.70
2019,03,27,02,14,5.70
2019,03,27,02,15,5.70
2019,03,27,02,16,5.70
2019,03,27,02,17,5.70
2019,03,27,02,18,5.70
2019,03,27,02,19,5.70
2019,03,27,02,20,5.70
2019,03,27,02,21,5.70
2019,03,27,02,22,5.70
2019,03,27,02,23,5.70
2019,03,27,02,24,5.80
2019,03,27,02,25,5.80
2019,03,27,02,26,5.90
2019,03,27,02,27,5.90
2019,03,27,02,28,5.90
2019,03,27,02,29,5.90
2019,03,27,02,30,5.90
2019,03,27,02,31,6.00
2019,03,27,02,32,6.00
2019,03,27,02,33,6.10
2019,03,27,02,34,6.10
2019,03,27,02,35,6.10
2019,03,27,02,36,6.10
2019,03,27,02,37,6.10
2019,03,27,02,38,6.20
2019,03,27,02,39,6.20
2019,03,27,02,40,6.20
2019,03,27,02,41,6.20
2019,03,27,02,42,6.20
2019,03,27,02,43,6.20
2019,03,27,02,44,6.20
2019,03,27,02,45,6.10
2019,03,27,02,46,6.20
2019,03,27,02,47,6.20
2019,03,27,02,48,6.20
2019,03,27,02,49,6.20
2019,03,27,02,50,6.20
2019,03,27,02,51,6.20
2019,03,27,02,52,6.30
2019,03,27,02,53,6.30
2019,03,27,02,54,6.30
2019,03,27,02,55,6.30
2019,03,27,02,56,6.30
2019,03,27,02,57,6.30
2019,03,27,02,58,6.30
2019,03,27,02,59,6.40
2019,03,27,03,00,6.40
2019,03,27,03,01,6.40
2019,03,27,03,02,6.40
2019,03,27,03,03,6.40
2019,03,27,03,04,6.40
2019,03,27,03,05,6.40
2019,03,27,03,06,6.40
2019,03,27,03,07,6.40
2019,03,27,03,08,6.40
2019,03,27,03,09,6.40
2019,03,27,03,10,6.40
2019,03,27,03,11,6.40
2019,03,27,03,12,6.50
2019,03,27,03,13,6.50
2019,03,27,03,14,6.50
2019,03,27,03,15,6.50
2019,03,27,03,16,6.50
2019,03,27,03,17,6.50
2019,03,27,03,18,6.50
2019,03,27,03,19,6.50
2019,03,27,03,20,6.40
2019,03,27,03,21,6.40
2019,03,27,03,22,6.30
2019,03,27,03,23,6.30
2019,03,27,03,24,6.30
2019,03,27,03,25,6.30
2019,03,27,03,26,6.30
2019,03,27,03,27,6.30
2019,03,27,03,28,6.30
2019,03,27,03,29,6.30
2019,03,27,03,30,6.30
2019,03,27,03,31,6.30
2019,03,27,03,32,6.30
2019,03,27,03,33,6.30
2019,03,27,03,34,6.40
2019,03,27,03,35,6.50
2019,03,27,03,36,6.50
2019,03,27,03,37,6.60
2019,03,27,03,38,6.60
2019,03,27,03,39,6.60
2019,03,27,03,40,6.60
2019,03,27,03,41,6.60
2019,03,27,03,42,6.60
2019,03,27,03,43,6.60
2019,03,27,03,44,6.60
2019,03,27,03,45,6.60
2019,03,27,03,46,6.60
2019,03,27,03,47,6.60
2019,03,27,03,48,6.60
2019,03,27,03,49,6.70
2019,03,27,03,50,6.70
2019,03,27,03,51,6.70
2019,03,27,03,52,6.70
2019,03,27,03,53,6.80
2019,03,27,03,54,6.80
2019,03,27,03,55,6.80
2019,03,27,03,56,6.80
2019,03,27,03,57,6.80
2019,03,27,03,58,6.80
2019,03,27,03,59,6.80
2019,03,27,04,00,6.80
2019,03,27,04,01,6.80
2019,03,27,04,02,6.80
2019,03,27,04,03,6.80
2019,03,27,04,04,6.80
2019,03,27,04,05,6.80
2019,03,27,04,06,6.80
2019,03,27,04,07,6.80
2019,03,27,04,08,6.80
2019,03,27,04,09,6.80
2019,03,27,04,10,6.80
2019,03,27,04,11,6.80
2019,03,27,04,12,6.70
2019,03,27,04,13,6.70
2019,03,27,04,14,6.70
2019,03,27,04,15,6.70
2019,03,27,04,16,6.70
2019,03,27,04,17,6.70
2019,03,27,04,18,6.70
2019,03,27,04,19,6.70
2019,03,27,04,20,6.60
2019,03,27,04,21,6.60
2019,03,27,04,22,6.60
2019,03,27,04,23,6.60
2019,03,27,04,24,6.60
2019,03,27,04,25,6.70
2019,03,27,04,26,6.60
2019,03,27,04,27,6.60
2019,03,27,04,28,6.60
2019,03,27,04,29,6.60
2019,03,27,04,30,6.60
2019,03,27,04,31,6.60
2019,03,27,04,32,6.60
2019,03,27,04,33,6.60
2019,03,27,04,34,6.60
2019,03,27,04,35,6.60
2019,03,27,04,36,6.60
2019,03,27,04,37,6.60
2019,03,27,04,38,6.60
2019,03,27,04,39,6.60
2019,03,27,04,40,6.60
2019,03,27,04,41,6.60
2019,03,27,04,42,6.60
2019,03,27,04,43,6.60
2019,03,27,04,44,6.60
2019,03,27,04,45,6.70
2019,03,27,04,46,6.70
2019,03,27,04,47,6.70
2019,03,27,04,48,6.70
2019,03,27,04,49,6.70
2019,03,27,04,50,6.70
2019,03,27,04,51,6.70
2019,03,27,04,52,6.70
2019,03,27,04,53,6.70
2019,03,27,04,54,6.70
2019,03,27,04,55,6.70
2019,03,27,04,56,6.60
2019,03,27,04,57,6.60
2019,03,27,04,58,6.60
2019,03,27,04,59,6.60
2019,03,27,05,00,6.60
2019,03,27,05,01,6.60
2019,03,27,05,02,6.60
2019,03,27,05,03,6.50
2019,03,27,05,04,6.40
2019,03,27,05,05,6.40
2019,03,27,05,06,6.50
2019,03,27,05,07,6.60
2019,03,27,05,08,6.60
2019,03,27,05,09,6.70
2019,03,27,05,10,6.80
2019,03,27,05,11,6.90
2019,03,27,05,12,6.90
2019,03,27,05,13,7.00
2019,03,27,05,14,7.00
2019,03,27,05,15,7.10
2019,03,27,05,16,7.10
2019,03,27,05,17,7.10
2019,03,27,05,18,7.10
2019,03,27,05,19,7.00
2019,03,27,05,20,7.00
2019,03,27,05,21,6.90
2019,03,27,05,22,6.90
2019,03,27,05,23,6.90
2019,03,27,05,24,6.90
2019,03,27,05,25,6.90
2019,03,27,05,26,6.90
2019,03,27,05,27,6.90
2019,03,27,05,28,6.80
2019,03,27,05,29,6.80
2019,03,27,05,30,6.80
2019,03,27,05,31,6.80
2019,03,27,05,32,6.80
2019,03,27,05,33,6.80
2019,03,27,05,34,6.80
2019,03,27,05,35,6.80
2019,03,27,05,36,6.80
2019,03,27,05,37,6.80
2019,03,27,05,38,6.80
2019,03,27,05,39,6.80
2019,03,27,05,40,6.80
2019,03,27,05,41,6.80
2019,03,27,05,42,6.70
2019,03,27,05,43,6.70
2019,03,27,05,44,6.70
2019,03,27,05,45,6.70
2019,03,27,05,46,6.70
2019,03,27,05,47,6.70
2019,03,27,05,48,6.70
2019,03,27,05,49,6.70
2019,03,27,05,50,6.70
2019,03,27,05,51,6.60
2019,03,27,05,52,6.60
2019,03,27,05,53,6.60
2019,03,27,05,54,6.60
2019,03,27,05,55,6.60
2019,03,27,05,56,6.60
2019,03,27,05,57,6.60
2019,03,27,05,58,6.60
2019,03,27,05,59,6.60
2019,03,27,06,00,6.60
2019,03,27,06,01,6.60
2019,03,27,06,02,6.60
2019,03,27,06,03,6.60
2019,03,27,06,04,6.60
2019,03,27,06,05,6.60
2019,03,27,06,06,6.60
2019,03,27,06,07,6.50
2019,03,27,06,08,6.50
2019,03,27,06,09,6.50
2019,03,27,06,10,6.40
2019,03,27,06,11,6.50
2019,03,27,06,12,6.60
2019,03,27,06,13,6.60
2019,03,27,06,14,6.60
2019,03,27,06,15,6.50
2019,03,27,06,16,6.50
2019,03,27,06,17,6.50
2019,03,27,06,18,6.40
2019,03,27,06,19,6.40
2019,03,27,06,20,6.50
2019,03,27,06,21,6.40
2019,03,27,06,22,6.50
2019,03,27,06,23,6.40
2019,03,27,06,24,6.40
2019,03,27,06,25,6.40
2019,03,27,06,26,6.40
2019,03,27,06,27,6.40
2019,03,27,06,28,6.40
2019,03,27,06,29,6.40
2019,03,27,06,30,6.40
2019,03,27,06,31,6.40
2019,03,27,06,32,6.50
2019,03,27,06,33,6.50
2019,03,27,06,34,6.60
2019,03,27,06,35,6.50
2019,03,27,06,36,6.50
2019,03,27,06,37,6.50
2019,03,27,06,38,6.40
2019,03,27,06,39,6.40
2019,03,27,06,40,6.40
2019,03,27,06,41,6.30
2019,03,27,06,42,6.30
2019,03,27,06,43,6.30
2019,03,27,06,44,6.30
2019,03,27,06,45,6.30
2019,03,27,06,46,6.30
2019,03,27,06,47,6.30
2019,03,27,06,48,6.40
2019,03,27,06,49,6.50
2019,03,27,06,50,6.60
2019,03,27,06,51,6.60
2019,03,27,06,52,6.60
2019,03,27,06,53,6.60
2019,03,27,06,54,6.60
2019,03,27,06,55,6.50
2019,03,27,06,56,6.50
2019,03,27,06,57,6.40
2019,03,27,06,58,6.30
2019,03,27,06,59,6.30
2019,03,27,07,00,6.20
2019,03,27,07,01,6.20
2019,03,27,07,02,6.10
2019,03,27,07,03,6.10
2019,03,27,07,04,6.10
2019,03,27,07,05,6.00
2019,03,27,07,06,5.90
2019,03,27,07,07,5.80
2019,03,27,07,08,5.70
2019,03,27,07,09,5.60
2019,03,27,07,10,5.60
2019,03,27,07,11,5.50
2019,03,27,07,12,5.40
2019,03,27,07,13,5.40
2019,03,27,07,14,5.30
2019,03,27,07,15,5.30
2019,03,27,07,16,5.30
2019,03,27,07,17,5.30
2019,03,27,07,18,5.30
2019,03,27,07,19,5.30
2019,03,27,07,20,5.40
2019,03,27,07,21,5.40
2019,03,27,07,22,5.40
2019,03,27,07,23,5.40
2019,03,27,07,24,5.40
2019,03,27,07,25,5.40
2019,03,27,07,26,5.40
2019,03,27,07,27,5.40
2019,03,27,07,28,5.50
2019,03,27,07,29,5.50
2019,03,27,07,30,5.50
2019,03,27,07,31,5.50
2019,03,27,07,32,5.60
2019,03,27,07,33,5.60
2019,03,27,07,34,5.60
2019,03,27,07,35,5.70
2019,03,27,07,36,5.70
2019,03,27,07,37,5.80
2019,03,27,07,38,5.80
2019,03,27,07,39,5.80
2019,03,27,07,40,5.80
2019,03,27,07,41,5.80
2019,03,27,07,42,5.80
2019,03,27,07,43,5.90
2019,03,27,07,44,6.00
2019,03,27,07,45,6.10
2019,03,27,07,46,6.20
2019,03,27,07,47,6.20
2019,03,27,07,48,6.20
2019,03,27,07,49,6.20
2019,03,27,07,50,6.20
2019,03,27,07,51,6.20
2019,03,27,07,52,6.30
2019,03,27,07,53,6.30
2019,03,27,07,54,6.40
2019,03,27,07,55,6.40
2019,03,27,07,56,6.50
2019,03,27,07,57,6.60
2019,03,27,07,58,6.60
2019,03,27,07,59,6.70
2019,03,27,08,00,6.70
2019,03,27,08,01,6.70
2019,03,27,08,02,6.80
2019,03,27,08,03,6.80
2019,03,27,08,04,6.90
2019,03,27,08,05,6.90
2019,03,27,08,06,7.00
2019,03,27,08,07,7.00
2019,03,27,08,08,7.00
2019,03,27,08,09,7.10
2019,03,27,08,10,7.10
2019,03,27,08,11,7.10
2019,03,27,08,12,7.10
2019,03,27,08,13,7.10
2019,03,27,08,14,7.10
2019,03,27,08,15,7.20
2019,03,27,08,16,7.20
2019,03,27,08,17,7.20
2019,03,27,08,18,7.20
2019,03,27,08,19,7.20
2019,03,27,08,20,7.20
2019,03,27,08,21,7.20
2019,03,27,08,22,7.20
2019,03,27,08,23,7.20
2019,03,27,08,24,7.20
2019,03,27,08,25,7.30
2019,03,27,08,26,7.30
2019,03,27,08,27,7.30
2019,03,27,08,28,7.30
2019,03,27,08,29,7.30
2019,03,27,08,30,7.30
2019,03,27,08,31,7.30
2019,03,27,08,32,7.30
2019,03,27,08,33,7.30
2019,03,27,08,34,7.30
2019,03,27,08,35,7.30
2019,03,27,08,36,7.30
2019,03,27,08,37,7.30
2019,03,27,08,38,7.40
2019,03,27,08,39,7.40
2019,03,27,08,40,7.40
2019,03,27,08,41,7.50
2019,03,27,08,42,7.50
2019,03,27,08,43,7.60
2019,03,27,08,44,7.60
2019,03,27,08,45,7.60
2019,03,27,08,46,7.70
2019,03,27,08,47,7.70
2019,03,27,08,48,7.70
2019,03,27,08,49,7.70
2019,03,27,08,50,7.80
2019,03,27,08,51,7.80
2019,03,27,08,52,7.80
2019,03,27,08,53,7.90
2019,03,27,08,54,7.90
2019,03,27,08,55,7.90
2019,03,27,08,56,7.90
2019,03,27,08,57,7.90
2019,03,27,08,58,7.90
2019,03,27,08,59,7.90
2019,03,27,09,00,8.00
2019,03,27,09,01,8.00
2019,03,27,09,02,8.10
2019,03,27,09,03,8.10
2019,03,27,09,04,8.20
2019,03,27,09,05,8.20
2019,03,27,09,06,8.20
2019,03,27,09,07,8.10
2019,03,27,09,08,8.20
2019,03,27,09,09,8.20
2019,03,27,09,10,8.20
2019,03,27,09,11,8.20
2019,03,27,09,12,8.20
2019,03,27,09,13,8.30
2019,03,27,09,14,8.30
2019,03,27,09,15,8.30
2019,03,27,09,16,8.40
2019,03,27,09,17,8.40
2019,03,27,09,18,8.50
2019,03,27,09,19,8.50
2019,03,27,09,20,8.60
2019,03,27,09,21,8.70
2019,03,27,09,22,8.70
2019,03,27,09,23,8.80
2019,03,27,09,24,8.80
2019,03,27,09,25,8.80
2019,03,27,09,26,8.80
2019,03,27,09,27,8.80
2019,03,27,09,28,8.80
2019,03,27,09,29,8.90
2019,03,27,09,30,9.00
2019,03,27,09,31,9.10
2019,03,27,09,32,9.10
2019,03,27,09,33,9.20
2019,03,27,09,34,9.20
2019,03,27,09,35,9.30
2019,03,27,09,36,9.30
2019,03,27,09,37,9.40
2019,03,27,09,38,9.50
2019,03,27,09,39,9.50
2019,03,27,09,40,9.50
2019,03,27,09,41,9.60
2019,03,27,09,42,9.60
2019,03,27,09,43,9.70
2019,03,27,09,44,9.80
2019,03,27,09,45,9.70
2019,03,27,09,46,9.70
2019,03,27,09,47,9.70
2019,03,27,09,48,9.70
2019,03,27,09,49,9.80
2019,03,27,09,50,9.80
2019,03,27,09,51,9.90
2019,03,27,09,52,10.00
2019,03,27,09,53,10.10
2019,03,27,09,54,10.10
2019,03,27,09,55,10.20
2019,03,27,09,56,10.20
2019,03,27,09,57,10.30
2019,03,27,09,58,10.30
2019,03,27,09,59,10.40
2019,03,27,10,00,10.40
2019,03,27,10,01,10.50
2019,03,27,10,02,10.60
2019,03,27,10,03,10.60
2019,03,27,10,04,10.70
2019,03,27,10,05,10.70
2019,03,27,10,06,10.70
2019,03,27,10,07,10.70
2019,03,27,10,08,10.70
2019,03,27,10,09,10.70
2019,03,27,10,10,10.70
2019,03,27,10,11,10.70
2019,03,27,10,12,10.80
2019,03,27,10,13,10.90
2019,03,27,10,14,10.90
2019,03,27,10,15,10.90
2019,03,27,10,16,11.00
2019,03,27,10,17,11.00
2019,03,27,10,18,11.10
2019,03,27,10,19,11.20
2019,03,27,10,20,11.20
2019,03,27,10,21,11.20
2019,03,27,10,22,11.20
2019,03,27,10,23,11.30
2019,03,27,10,24,11.30
2019,03,27,10,25,11.40
2019,03,27,10,26,11.40
2019,03,27,10,27,11.40
2019,03,27,10,28,11.40
2019,03,27,10,29,11.50
2019,03,27,10,30,11.50
2019,03,27,10,31,11.60
2019,03,27,10,32,11.60
2019,03,27,10,33,11.50
2019,03,27,10,34,11.50
2019,03,27,10,35,11.60
2019,03,27,10,36,11.60
2019,03,27,10,37,11.70
2019,03,27,10,38,11.90
2019,03,27,10,39,12.00
2019,03,27,10,40,12.10
2019,03,27,10,41,12.20
2019,03,27,10,42,12.30
2019,03,27,10,43,12.30
2019,03,27,10,44,12.40
2019,03,27,10,45,12.40
2019,03,27,10,46,12.50
2019,03,27,10,47,12.60
2019,03,27,10,48,12.60
2019,03,27,10,49,12.70
2019,03,27,10,50,12.70
2019,03,27,10,51,12.80
2019,03,27,10,52,12.90
2019,03,27,10,53,12.80
2019,03,27,10,54,12.80
2019,03,27,10,55,12.90
2019,03,27,10,56,12.90
2019,03,27,10,57,12.90
2019,03,27,10,58,12.90
2019,03,27,10,59,12.90
2019,03,27,11,00,13.00
2019,03,27,11,01,13.00
2019,03,27,11,02,13.00
2019,03,27,11,03,13.00
2019,03,27,11,04,13.00
2019,03,27,11,05,13.00
2019,03,27,11,06,13.00
2019,03,27,11,07,13.10
2019,03,27,11,08,13.10
2019,03,27,11,09,13.20
2019,03,27,11,10,13.20
2019,03,27,11,11,13.20
2019,03,27,11,12,13.30
2019,03,27,11,13,13.40
2019,03,27,11,14,13.40
2019,03,27,11,15,13.40
2019,03,27,11,16,13.40
2019,03,27,11,17,13.40
2019,03,27,11,18,13.40
2019,03,27,11,19,13.40
2019,03,27,11,20,13.40
2019,03,27,11,21,13.50
2019,03,27,11,22,13.60
2019,03,27,11,23,13.60
2019,03,27,11,24,13.60
2019,03,27,11,25,13.60
2019,03,27,11,26,13.60
2019,03,27,11,27,13.70
2019,03,27,11,28,13.70
2019,03,27,11,29,13.80
2019,03,27,11,30,13.90
2019,03,27,11,31,14.00
2019,03,27,11,32,14.10
2019,03,27,11,33,14.10
2019,03,27,11,34,14.10
2019,03,27,11,35,14.00
2019,03,27,11,36,14.00
2019,03,27,11,37,14.00
2019,03,27,11,38,14.00
2019,03,27,11,39,14.10
2019,03,27,11,40,14.10
2019,03,27,11,41,14.10
2019,03,27,11,42,14.10
2019,03,27,11,43,14.10
2019,03,27,11,44,14.10
2019,03,27,11,45,14.00
2019,03,27,11,46,13.90
2019,03,27,11,47,13.80
2019,03,27,11,48,13.80
2019,03,27,11,49,13.80
2019,03,27,11,50,13.80
2019,03,27,11,51,13.90
2019,03,27,11,52,14.00
2019,03,27,11,53,14.00
2019,03,27,11,54,14.00
2019,03,27,11,55,14.00
2019,03,27,11,56,14.00
2019,03,27,11,57,14.00
2019,03,27,11,58,14.00
2019,03,27,11,59,14.10
2019,03,27,12,00,14.10
2019,03,27,12,01,14.10
2019,03,27,12,02,14.10
2019,03,27,12,03,14.10
2019,03,27,12,04,14.00
2019,03,27,12,05,13.80
2019,03,27,12,06,13.80
2019,03,27,12,07,13.70
2019,03,27,12,08,13.70
2019,03,27,12,09,13.70
2019,03,27,12,10,13.70
2019,03,27,12,11,13.70
2019,03,27,12,12,13.60
2019,03,27,12,13,13.60
2019,03,27,12,14,13.60
2019,03,27,12,15,13.60
2019,03,27,12,16,13.50
2019,03,27,12,17,13.50
2019,03,27,12,18,13.50
2019,03,27,12,19,13.40
2019,03,27,12,20,13.30
2019,03,27,12,21,13.30
2019,03,27,12,22,13.30
2019,03,27,12,23,13.40
2019,03,27,12,24,13.50
2019,03,27,12,25,13.50
2019,03,27,12,26,13.60
2019,03,27,12,27,13.50
2019,03,27,12,28,13.40
2019,03,27,12,29,13.30
2019,03,27,12,30,13.40
2019,03,27,12,31,13.50
2019,03,27,12,32,13.50
2019,03,27,12,33,13.50
2019,03,27,12,34,13.50
2019,03,27,12,35,13.50
2019,03,27,12,36,13.60
2019,03,27,12,37,13.70
2019,03,27,12,38,13.70
2019,03,27,12,39,13.70
2019,03,27,12,40,13.70
2019,03,27,12,41,13.80
2019,03,27,12,42,13.80
2019,03,27,12,43,13.80
2019,03,27,12,44,13.90
2019,03,27,12,45,13.90
2019,03,27,12,46,13.90
2019,03,27,12,47,13.90
2019,03,27,12,48,13.90
2019,03,27,12,49,13.90
2019,03,27,12,50,13.90
2019,03,27,12,51,13.90
2019,03,27,12,52,13.90
2019,03,27,12,53,13.90
2019,03,27,12,54,13.90
2019,03,27,12,55,14.00
2019,03,27,12,56,14.10
2019,03,27,12,57,14.10
2019,03,27,12,58,14.10
2019,03,27,12,59,14.20
2019,03,27,13,00,14.30
2019,03,27,13,01,14.50
2019,03,27,13,02,14.60
2019,03,27,13,03,14.50
2019,03,27,13,04,14.50
2019,03,27,13,05,14.50
2019,03,27,13,06,14.60
2019,03,27,13,07,14.60
2019,03,27,13,08,14.60
2019,03,27,13,09,14.60
2019,03,27,13,10,14.60
2019,03,27,13,11,14.60
2019,03,27,13,12,14.60
2019,03,27,13,13,14.60
2019,03,27,13,14,14.60
2019,03,27,13,15,14.70
2019,03,27,13,16,14.80
2019,03,27,13,17,14.80
2019,03,27,13,18,14.90
2019,03,27,13,19,14.90
2019,03,27,13,20,14.70
2019,03,27,13,21,14.70
2019,03,27,13,22,14.60
2019,03,27,13,23,14.60
2019,03,27,13,24,14.70
2019,03,27,13,25,14.80
2019,03,27,13,26,14.80
2019,03,27,13,27,15.00
2019,03,27,13,28,15.10
2019,03,27,13,29,15.10
2019,03,27,13,30,15.20
2019,03,27,13,31,15.20
2019,03,27,13,32,15.20
2019,03,27,13,33,15.20
2019,03,27,13,34,15.10
2019,03,27,13,35,15.00
2019,03,27,13,36,14.90
2019,03,27,13,37,14.80
2019,03,27,13,38,14.80
2019,03,27,13,39,14.80
2019,03,27,13,40,14.80
2019,03,27,13,41,14.90
2019,03,27,13,42,15.00
2019,03,27,13,43,15.00
2019,03,27,13,44,15.10
2019,03,27,13,45,15.10
2019,03,27,13,46,15.10
2019,03,27,13,47,15.10
2019,03,27,13,48,15.10
2019,03,27,13,49,14.90
2019,03,27,13,50,14.90
2019,03,27,13,51,14.90
2019,03,27,13,52,14.80
2019,03,27,13,53,14.80
2019,03,27,13,54,14.90
2019,03,27,13,55,15.10
2019,03,27,13,56,15.30
2019,03,27,13,57,15.30
2019,03,27,13,58,15.30
2019,03,27,13,59,15.40
2019,03,27,14,00,15.50
2019,03,27,14,01,15.40
2019,03,27,14,02,15.40
2019,03,27,14,03,15.40
2019,03,27,14,04,15.40
2019,03,27,14,05,15.40
2019,03,27,14,06,15.30
2019,03,27,14,07,15.30
2019,03,27,14,08,15.30
2019,03,27,14,09,15.30
2019,03,27,14,10,15.40
2019,03,27,14,11,15.40
2019,03,27,14,12,15.50
2019,03,27,14,13,15.50
2019,03,27,14,14,15.40
2019,03,27,14,15,15.40
2019,03,27,14,16,15.50
2019,03,27,14,17,15.50
2019,03,27,14,18,15.40
2019,03,27,14,19,15.40
2019,03,27,14,20,15.40
2019,03,27,14,21,15.40
2019,03,27,14,22,15.50
2019,03,27,14,23,15.60
2019,03,27,14,24,15.70
2019,03,27,14,25,15.60
2019,03,27,14,26,15.60
2019,03,27,14,27,15.60
2019,03,27,14,28,15.60
2019,03,27,14,29,15.70
2019,03,27,14,30,15.70
2019,03,27,14,31,15.80
2019,03,27,14,32,15.90
2019,03,27,14,33,15.80
2019,03,27,14,34,15.70
2019,03,27,14,35,15.70
2019,03,27,14,36,15.80
2019,03,27,14,37,15.80
2019,03,27,14,38,15.80
2019,03,27,14,39,15.80
2019,03,27,14,40,15.80
2019,03,27,14,41,15.80
2019,03,27,14,42,15.80
2019,03,27,14,43,15.90
2019,03,27,14,44,15.90
2019,03,27,14,45,16.00
2019,03,27,14,46,16.00
2019,03,27,14,47,15.90
2019,03,27,14,48,15.90
2019,03,27,14,49,15.90
2019,03,27,14,50,15.90
2019,03,27,14,51,16.00
2019,03,27,14,52,16.00
2019,03,27,14,53,16.00
2019,03,27,14,54,16.00
2019,03,27,14,55,16.00
2019,03,27,14,56,15.90
2019,03,27,14,57,15.70
2019,03,27,14,58,15.70
2019,03,27,14,59,15.70
2019,03,27,15,00,15.80
2019,03,27,15,01,15.90
2019,03,27,15,02,15.90
2019,03,27,15,03,15.90
2019,03,27,15,04,15.90
2019,03,27,15,05,16.00
2019,03,27,15,06,16.00
2019,03,27,15,07,16.00
2019,03,27,15,08,16.00
2019,03,27,15,09,16.10
2019,03,27,15,10,16.10
2019,03,27,15,11,16.20
2019,03,27,15,12,16.10
2019,03,27,15,13,16.20
2019,03,27,15,14,16.10
2019,03,27,15,15,16.10
2019,03,27,15,16,16.00
2019,03,27,15,17,16.00
2019,03,27,15,18,15.90
2019,03,27,15,19,15.90
2019,03,27,15,20,15.90
2019,03,27,15,21,16.00
2019,03,27,15,22,16.00
2019,03,27,15,23,16.00
2019,03,27,15,24,16.00
2019,03,27,15,25,15.90
2019,03,27,15,26,15.50
2019,03,27,15,27,15.20
2019,03,27,15,28,14.80
2019,03,27,15,29,14.60
2019,03,27,15,30,14.40
2019,03,27,15,31,14.30
2019,03,27,15,32,14.20
2019,03,27,15,33,14.20
2019,03,27,15,34,14.20
2019,03,27,15,35,14.20
2019,03,27,15,36,14.10
2019,03,27,15,37,14.10
2019,03,27,15,38,14.10
2019,03,27,15,39,14.10
2019,03,27,15,40,14.00
2019,03,27,15,41,14.00
2019,03,27,15,42,14.00
2019,03,27,15,43,13.90
2019,03,27,15,44,13.70
2019,03,27,15,45,13.70
2019,03,27,15,46,13.70
2019,03,27,15,47,13.70
2019,03,27,15,48,13.70
2019,03,27,15,49,13.60
2019,03,27,15,50,13.40
2019,03,27,15,51,13.30
2019,03,27,15,52,13.20
2019,03,27,15,53,13.20
2019,03,27,15,54,13.20
2019,03,27,15,55,13.20
2019,03,27,15,56,13.30
2019,03,27,15,57,13.40
2019,03,27,15,58,13.40
2019,03,27,15,59,13.30
2019,03,27,16,00,13.30
2019,03,27,16,01,13.20
2019,03,27,16,02,13.10
2019,03,27,16,03,13.10
2019,03,27,16,04,13.10
2019,03,27,16,05,13.10
2019,03,27,16,06,13.10
2019,03,27,16,07,13.10
2019,03,27,16,08,13.10
2019,03,27,16,09,13.10
2019,03,27,16,10,13.10
2019,03,27,16,11,13.10
2019,03,27,16,12,13.20
2019,03,27,16,13,13.20
2019,03,27,16,14,13.20
2019,03,27,16,15,13.10
2019,03,27,16,16,13.00
2019,03,27,16,17,12.80
2019,03,27,16,18,12.70
2019,03,27,16,19,12.70
2019,03,27,16,20,12.70
2019,03,27,16,21,12.80
2019,03,27,16,22,12.80
2019,03,27,16,23,12.90
2019,03,27,16,24,12.90
2019,03,27,16,25,12.90
2019,03,27,16,26,12.90
2019,03,27,16,27,12.80
2019,03,27,16,28,12.80
2019,03,27,16,29,12.90
2019,03,27,16,30,12.90
2019,03,27,16,31,12.90
2019,03,27,16,32,13.00
2019,03,27,16,33,13.00
2019,03,27,16,34,13.00
2019,03,27,16,35,13.00
2019,03,27,16,36,13.00
2019,03,27,16,37,13.00
2019,03,27,16,38,13.10
2019,03,27,16,39,13.10
2019,03,27,16,40,13.10
2019,03,27,16,41,13.10
2019,03,27,16,42,13.10
2019,03,27,16,43,13.10
2019,03,27,16,44,13.10
2019,03,27,16,45,13.10
2019,03,27,16,46,13.10
2019,03,27,16,47,13.20
2019,03,27,16,48,13.20
2019,03,27,16,49,13.20
2019,03,27,16,50,13.20
2019,03,27,16,51,13.20
2019,03,27,16,52,13.20
2019,03,27,16,53,13.00
2019,03,27,16,54,12.90
2019,03,27,16,55,12.80
2019,03,27,16,56,12.70
2019,03,27,16,57,12.60
2019,03,27,16,58,12.40
2019,03,27,16,59,12.30
2019,03,27,17,00,12.20
2019,03,27,17,01,12.20
2019,03,27,17,02,12.20
2019,03,27,17,03,12.20
2019,03,27,17,04,12.20
2019,03,27,17,05,12.20
2019,03,27,17,06,12.30
2019,03,27,17,07,12.30
2019,03,27,17,08,12.30
2019,03,27,17,09,12.30
2019,03,27,17,10,12.40
2019,03,27,17,11,12.50
2019,03,27,17,12,12.50
2019,03,27,17,13,12.50
2019,03,27,17,14,12.60
2019,03,27,17,15,12.60
2019,03,27,17,16,12.60
2019,03,27,17,17,12.70
2019,03,27,17,18,12.70
2019,03,27,17,19,12.80
2019,03,27,17,20,12.90
2019,03,27,17,21,13.10
2019,03,27,17,22,13.20
2019,03,27,17,23,13.30
2019,03,27,17,24,13.30
2019,03,27,17,25,13.40
2019,03,27,17,26,13.40
2019,03,27,17,27,13.40
2019,03,27,17,28,13.50
2019,03,27,17,29,13.40
2019,03,27,17,30,13.40
2019,03,27,17,31,13.30
2019,03,27,17,32,13.20
2019,03,27,17,33,13.10
2019,03,27,17,34,13.00
2019,03,27,17,35,12.90
2019,03,27,17,36,12.80
2019,03,27,17,37,12.80
2019,03,27,17,38,12.80
2019,03,27,17,39,12.70
2019,03,27,17,40,12.70
2019,03,27,17,41,12.60
2019,03,27,17,42,12.60
2019,03,27,17,43,12.60
2019,03,27,17,44,12.50
2019,03,27,17,45,12.50